Location: Tucson
(32.2217°N, 110.9265°W)
Time: 08:16:14
(UTC-07:00)

Tiros 1 - All Passes

Search period start: 25 October 2021 00:00
Search period end: 04 November 2021 00:00
Orbit: 630 x 664 km, 48.4° (Epoch: 24 October)

Date Brightness Start Highest point End Pass type
(mag) Time Alt. Az. Time Alt. Az. Time Alt. Az.
25 Oct - 08:51:55 10° SW 08:56:43 75° SE 09:01:29 10° NE daylight
25 Oct - 10:35:26 10° W 10:39:17 23° NNW 10:43:06 10° NNE daylight
25 Oct - 12:21:29 10° NNW 12:22:53 11° N 12:24:18 10° NNE daylight
25 Oct - 14:04:11 10° NNW 14:06:48 14° NNE 14:09:22 10° NE daylight
25 Oct - 15:45:24 10° NW 15:49:55 45° NE 15:54:22 10° ESE daylight
25 Oct - 17:28:01 10° WNW 17:31:54 27° SW 17:35:46 10° S daylight
26 Oct - 07:36:41 10° S 07:40:40 27° SE 07:44:40 10° ENE daylight
26 Oct - 09:18:03 10° WSW 09:22:41 48° NW 09:27:18 10° NE daylight
26 Oct - 11:03:03 10° NW 11:05:47 15° NNW 11:08:31 10° NNE daylight
26 Oct - 12:48:20 10° NNW 12:49:41 11° N 12:51:01 10° NNE daylight
26 Oct - 14:29:36 10° NNW 14:33:19 22° NNE 14:36:59 10° ENE daylight
26 Oct - 16:11:13 10° NW 16:15:54 77° SW 16:20:31 10° SE daylight
27 Oct - 08:01:38 10° SW 08:06:24 68° SE 08:11:09 10° NE daylight
27 Oct - 09:44:57 10° W 09:48:54 25° NNW 09:52:51 10° NNE daylight
27 Oct - 11:30:55 10° NNW 11:32:29 11° N 11:34:02 10° NNE daylight
27 Oct - 13:13:55 10° NNW 13:16:24 14° NNE 13:18:53 10° NE daylight
27 Oct - 14:55:07 10° NW 14:59:35 42° NNE 15:04:00 10° ESE daylight
27 Oct - 16:37:35 10° WNW 16:41:38 29° SW 16:45:38 10° SSE daylight
28 Oct - 06:46:33 10° S 06:50:23 24° SE 06:54:13 10° ENE daylight
28 Oct - 08:27:39 10° WSW 08:32:20 52° NW 08:37:01 10° NE daylight
28 Oct - 10:12:29 10° NW 10:15:23 16° NNW 10:18:16 10° NNE daylight
28 Oct - 11:57:57 10° NNW 11:59:16 11° N 12:00:34 10° NNE daylight
28 Oct - 13:39:19 10° NNW 13:42:57 21° NNE 13:46:32 10° ENE daylight
28 Oct - 15:20:53 10° NW 15:25:36 85° SW 15:30:14 10° SE daylight
28 Oct - 17:05:58 10° WSW 17:07:10 11° SW 17:08:22 10° SW daylight
29 Oct - 07:11:22 10° SW 07:16:05 61° SE 07:20:48 10° ENE daylight
29 Oct - 08:54:29 10° W 08:58:32 27° NNW 09:02:35 10° NNE daylight
29 Oct - 10:40:22 10° NNW 10:42:04 12° N 10:43:46 10° NNE daylight
29 Oct - 12:23:38 10° NNW 12:26:00 14° NNE 12:28:22 10° NE daylight
29 Oct - 14:04:49 10° NW 14:09:15 39° NNE 14:13:37 10° ESE daylight
29 Oct - 15:47:10 10° WNW 15:51:22 33° SW 15:55:30 10° SSE daylight
30 Oct - 05:56:28 10° S 06:00:06 22° SE 06:03:45 10° E visible
30 Oct - 07:37:16 10° WSW 07:42:00 57° NW 07:46:44 10° NE daylight
30 Oct - 09:21:57 10° WNW 09:24:59 16° NNW 09:28:01 10° NNE daylight
30 Oct - 11:07:34 10° NNW 11:08:51 11° N 11:10:08 10° NNE daylight
30 Oct - 12:49:03 10° NNW 12:52:35 20° NNE 12:56:05 10° ENE daylight
30 Oct - 14:30:33 10° NW 14:35:17 87° NE 14:39:57 10° SE daylight
30 Oct - 16:14:58 10° WSW 16:16:55 12° SW 16:18:51 10° SSW daylight
31 Oct - 06:21:06 10° SSW 06:25:46 55° SE 06:30:28 10° ENE daylight
31 Oct - 08:04:02 10° W 08:08:10 28° NNW 08:12:19 10° NNE daylight
31 Oct - 09:49:48 10° NNW 09:51:39 12° N 09:53:31 10° NNE daylight
31 Oct - 11:33:20 10° NNW 11:35:36 13° NNE 11:37:52 10° NE daylight
31 Oct - 13:14:31 10° NW 13:18:54 36° NNE 13:23:14 10° E daylight
31 Oct - 14:56:45 10° WNW 15:01:04 37° SW 15:05:21 10° SSE daylight
01 Nov - 05:06:24 10° S 05:09:48 20° SE 05:13:14 10° E visible
01 Nov - 06:46:54 10° WSW 06:51:40 62° NW 06:56:26 10° NE daylight
01 Nov - 08:31:25 10° WNW 08:34:35 17° NNW 08:37:46 10° NNE daylight
01 Nov - 10:17:09 10° NNW 10:18:26 11° N 10:19:43 10° NNE daylight
01 Nov - 11:58:46 10° NNW 12:02:12 19° NNE 12:05:36 10° ENE daylight
01 Nov - 13:40:14 10° NW 13:44:58 80° NE 13:49:39 10° SE daylight
01 Nov - 15:24:13 10° W 15:26:39 14° SW 15:29:04 10° SSW daylight
02 Nov - 05:30:51 10° SSW 05:35:28 49° SE 05:40:06 10° ENE visible
02 Nov - 07:13:34 10° W 07:17:48 30° NNW 07:22:03 10° NNE daylight
02 Nov - 08:59:15 10° NW 09:01:15 12° N 09:03:14 10° NNE daylight
02 Nov - 10:43:02 10° NNW 10:45:12 13° NNE 10:47:21 10° NE daylight
02 Nov - 12:24:14 10° NW 12:28:33 33° NNE 12:32:50 10° E daylight
02 Nov - 14:06:22 10° WNW 14:10:47 41° SW 14:15:10 10° SSE daylight
03 Nov - 04:16:23 10° S 04:19:32 18° SE 04:22:42 10° E visible
03 Nov - 05:56:33 10° WSW 06:01:20 69° NW 06:06:08 10° NE visible
03 Nov - 07:40:54 10° WNW 07:44:13 18° NNW 07:47:30 10° NNE daylight
03 Nov - 09:26:42 10° NNW 09:28:01 11° N 09:29:19 10° NNE daylight
03 Nov - 11:08:29 10° NNW 11:11:48 18° NNE 11:15:07 10° ENE daylight
03 Nov - 12:49:54 10° NW 12:54:40 73° NE 12:59:20 10° ESE daylight
03 Nov - 14:33:34 10° W 14:36:23 16° SW 14:39:11 10° SSW daylight
